Flag for U.S.A. Weather past 2 weeks in Simi Valley, California, U.S.A.

Now
63 °F

Clear.


Feels Like: 63 °F
Forecast: 49 / 76 °F
Wind: 17 mph from North

Location: Van Nuys Airport

Current Time: Apr 26, 2015 at 1:24:36 AM

Latest Report: Apr 26, 2015 at 12:51 AM


Visibility: 10 mi

Pressure: 29.88 "Hg

Humidity: 45%

Dew point: 41 °F

Location of Simi ValleyLocation

Historic Weather in Simi Valley — Graph

°F

Simi Valley temperature yesterday

Maximum temperature yesterday: 64 °F (at 10:51 AM)
Minimum temperature yesterday: 54 °F (at 5:51 AM)
Average temperature yesterday: 58 °F

Past Weeks' High & Low Weather Summary

 TemperatureHumidityPressure
High84 °F (Apr 17, 1:51 PM)93% (Apr 14, 3:04 AM)30.09 "Hg (Apr 14, 3:04 AM)
Low51 °F (Apr 11, 5:51 AM)7% (Apr 15, 3:51 PM)29.79 "Hg (Apr 20, 4:51 PM)
Average64 °F50%29.93 "Hg
* Reported Apr 10 11:51 PM — Apr 25 11:51 PM, Simi Valley, Weather by CustomWeather, © 2015

Note: Actual official high and low records may vary slightly from our data, if they occured in-between our weather recording intervals... More about our weather records

Advertising

Simi Valley weather history for previous 24 hours

 ConditionsComfort  
Time TempWeatherWind HumidityBarometerVisibility
11:51 PM
Sat, Apr 25
55 °FClear.6 mph72%29.90 "Hg10 mi
10:51 PM55 °FClear.3 mph74%29.89 "Hg10 mi
9:51 PM56 °FClear.6 mph72%29.88 "Hg10 mi
8:51 PM58 °FPassing clouds.7 mph67%29.86 "Hg10 mi
7:51 PM60 °FScattered clouds.6 mph65%29.85 "Hg10 mi
6:51 PM62 °FPartly sunny.3 mph65%29.84 "Hg10 mi
5:51 PM62 °FPartly sunny.No wind78%29.83 "Hg10 mi
4:51 PM62 °FMostly cloudy.5 mph70%29.85 "Hg10 mi
3:51 PM60 °FLight rain. More clouds than sun.6 mph80%29.87 "Hg7 mi
2:51 PM61 °FLight rain. Fog.7 mph78%29.89 "Hg4 mi
1:51 PM62 °FMostly cloudy.9 mph65%29.91 "Hg10 mi
12:51 PM62 °FMostly cloudy.6 mph62%29.93 "Hg10 mi
11:51 AM62 °FMore clouds than sun.8 mph60%29.94 "Hg10 mi
10:51 AM64 °FMostly cloudy.12 mph52%29.94 "Hg10 mi
9:51 AM61 °FPartly sunny.7 mph65%29.96 "Hg10 mi
8:51 AM59 °FBroken clouds.3 mph67%29.96 "Hg10 mi
7:51 AM55 °FBroken clouds.No wind77%29.96 "Hg10 mi
6:51 AM55 °FPassing clouds.3 mph77%29.96 "Hg10 mi
5:51 AM54 °FOvercast.No wind80%29.95 "Hg10 mi
4:51 AM56 °FOvercast.No wind77%29.95 "Hg10 mi
3:51 AM55 °FOvercast.No wind77%29.96 "Hg10 mi
3:02 AM55 °FPassing clouds.No wind77%29.97 "Hg10 mi
2:51 AM55 °FPassing clouds.3 mph77%29.96 "Hg10 mi
1:51 AM56 °FClear.No wind77%29.96 "Hg10 mi
Weather by CustomWeather, © 2015

See weather overviewHow to use our weather pages